EW8326 Weather Reports


time (UTC)temp
F
wind
direction
speed
knots
gust
knots
rain 1hr
in
rain 24hr
in
rain mn
in
humidity
%
barometer
mb
20260507095801 51 245 2.6 6.1 0.00 0.00 0.00 84 1011.2
20260507094901 51 191 1.7 3.5 0.00 0.00 0.00 84 1011.0
20260507094001 50 333 3.5 6.1 0.00 0.00 0.00 84 1011.1
20260507093101 49 342 3.5 7.0 0.00 0.00 0.00 84 1011.1
20260507092203 49 2 3.5 4.3 0.00 0.00 0.00 84 1011.2
20260507091301 48 332 3.5 4.3 0.00 0.00 0.00 84 1011.1
20260507085501 47 344 4.3 7.0 0.00 0.00 0.00 84 1011.3
20260507084601 46 263 3.5 7.0 0.00 0.00 0.00 84 1011.3
20260507083701 46 320 4.3 7.8 0.00 0.00 0.00 84 1011.3
20260507081902 45 9 5.2 7.0 0.00 0.00 0.00 84 1011.1
20260507081001 45 196 2.6 5.2 0.00 0.00 0.00 84 1011.0
20260507075201 44 322 4.3 5.2 0.00 0.00 0.00 84 1010.9
20260507073401 42 333 3.5 5.2 0.00 0.00 0.00 84 1010.8
20260507072503 42 13 4.3 6.1 0.00 0.00 0.00 84 1010.7
20260507070702 41 325 4.3 7.8 0.00 0.00 0.00 84 1010.7
20260507065801 40 240 3.5 7.8 0.00 0.00 0.00 84 1010.6
20260507064901 40 228 2.6 5.2 0.00 0.00 0.00 84 1010.6
20260507063101 39 332 5.2 7.0 0.00 0.00 0.00 84 1010.5
20260507062201 38 326 4.3 6.1 0.00 0.00 0.00 84 1010.4
20260507060401 37 336 7.0 8.7 0.00 0.00 0.00 84 1010.3
20260507055503 37 342 7.0 9.6 0.00 0.00 0.00 84 1010.2
20260507054601 37 340 7.0 9.6 0.00 0.00 0.00 84 1010.2
20260507053701 37 350 7.0 9.6 0.00 0.00 0.00 84 1010.1
20260507052801 36 345 4.3 6.1 0.00 0.00 0.00 84 1009.9
20260507051901 35 350 3.5 5.2 0.00 0.00 0.00 84 1010.0
20260507051001 34 251 2.6 5.2 0.00 0.00 0.00 84 1009.9
20260507045201 33 238 2.6 5.2 0.00 0.00 0.00 84 1009.9
20260507044302 33 294 2.6 4.3 0.00 0.00 0.00 84 1009.9
20260507043401 33 356 2.6 3.5 0.00 0.00 0.00 84 1009.8
20260507042501 32 338 1.7 3.5 0.00 0.00 0.00 84 1009.9
20260507041601 32 188 1.7 2.6 0.00 0.00 0.00 84 1009.7
20260507040702 32 225 1.7 2.6 0.00 0.00 0.00 84 1009.8
20260507035801 31 208 1.7 2.6 0.00 0.00 0.00 84 1009.6
20260507034901 31 161 1.7 3.5 0.00 0.00 0.00 84 1009.4
20260507033101 32 179 2.6 5.2 0.00 0.00 0.00 84 1009.2
20260507032201 32 201 2.6 4.3 0.00 0.00 0.00 84 1009.4
20260507024601 32 185 1.7 4.3 0.00 0.00 0.00 84 1009.2
20260507023702 33 334 1.7 3.5 0.00 0.00 0.00 84 1009.1
20260507022801 33 200 1.7 2.6 0.00 0.00 0.00 84 1009.0
20260507021903 33 238 1.7 2.6 0.00 0.00 0.00 84 1009.1
20260507021001 33 218 1.7 2.6 0.00 0.00 0.00 84 1009.0
20260507015201 34 254 1.7 3.5 0.00 0.00 0.00 84 1009.0
20260507014303 34 239 1.7 1.7 0.00 0.00 0.00 84 1008.9
20260507013401 35 192 1.7 4.3 0.00 0.00 0.00 84 1009.2
20260507012501 35 330 3.5 6.1 0.00 0.00 0.00 84 1008.9
20260507011601 34 327 4.3 7.8 0.00 0.00 0.00 84 1008.9
20260507010701 34 151 1.7 1.7 0.00 0.00 0.00 84 1008.7
20260507005801 34 158 2.6 3.5 0.00 0.00 0.00 84 1008.8
20260507004903 33 166 1.7 3.5 0.00 0.00 0.00 84 1008.6
20260507004001 34 158 1.7 3.5 0.00 0.00 0.00 84 1008.6
20260507003101 34 58 2.6 4.3 0.00 0.00 0.00 84 1008.5
20260507002201 35 353 4.3 9.6 0.00 0.00 0.00 84 1008.5
20260507001301 35 334 3.5 7.0 0.00 0.00 0.00 84 1008.5
20260507000401 36 341 4.3 5.2 0.00 0.00 0.00 84 1008.6
20260506235501 36 341 4.3 6.1 0.00 0.00 0.00 84 1008.4
20260506234601 36 332 4.3 6.1 0.00 0.00 0.00 84 1008.5
20260506232801 36 308 3.5 5.2 0.00 0.00 0.00 84 1008.3
20260506231902 36 317 4.3 6.1 0.00 0.00 0.00 84 1008.4
20260506231001 36 343 4.3 6.1 0.00 0.00 0.00 84 1008.3
20260506225201 37 334 6.1 7.0 0.00 0.00 0.00 84 1008.1
20260506224301 37 341 5.2 7.0 0.00 0.00 0.00 84 1008.3
20260506223401 38 311 7.0 9.6 0.00 0.00 0.00 84 1008.1
20260506222501 38 353 7.0 9.6 0.00 0.00 0.00 84 1008.2
20260506221601 38 1 7.8 13.0 0.00 0.00 0.00 84 1008.1
20260506220701 38 359 7.0 7.8 0.00 0.00 0.00 84 1007.9
20260506215801 38 329 4.3 7.8 0.00 0.00 0.00 84 1007.9
20260506214903 38 348 3.5 6.1 0.00 0.00 0.00 84 1008.0
20260506214001 38 328 4.3 8.7 0.00 0.00 0.00 84 1008.1
20260506212201 39 338 7.0 9.6 0.00 0.00 0.00 84 1007.9
20260506211301 39 330 6.1 11.3 0.00 0.00 0.00 84 1007.8
20260506210401 39 309 5.2 9.6 0.00 0.00 0.00 84 1007.7
20260506204601 40 335 2.6 3.5 0.00 0.00 0.00 84 1007.6
20260506203701 40 337 2.6 3.5 0.00 0.00 0.00 84 1007.4
20260506202802 41 344 3.5 7.0 0.00 0.00 0.00 84 1007.5
20260506201901 41 320 5.2 8.7 0.00 0.00 0.00 84 1007.5
20260506201002 41 357 3.5 8.7 0.00 0.00 0.00 84 1007.5
20260506200101 42 290 2.6 4.3 0.00 0.00 0.00 84 1007.5
20260506195201 42 332 3.5 4.3 0.00 0.00 0.00 84 1007.3
20260506194301 43 336 5.2 7.0 0.00 0.00 0.00 84 1007.3
20260506193401 43 327 6.1 10.4 0.00 0.00 0.00 84 1007.2
20260506191603 45 273 4.3 6.1 0.00 0.00 0.00 84 1007.2
20260506190701 46 314 3.5 5.2 0.00 0.00 0.00 84 1007.0
20260506185803 46 325 3.5 6.1 0.00 0.00 0.00 84 1007.0
20260506184901 47 320 6.1 8.7 0.00 0.00 0.00 84 1006.8
20260506183101 49 295 2.6 3.5 0.00 0.00 0.00 84 1006.6
20260506182201 49 309 3.5 9.6 0.00 0.00 0.00 84 1006.5
20260506181301 50 311 5.2 9.6 0.00 0.00 0.00 84 1006.6
20260506180401 51 280 2.6 7.8 0.00 0.00 0.00 84 1006.5
20260506174601 53 267 4.3 7.8 0.00 0.00 0.00 84 1006.3
20260506173701 54 266 2.6 4.3 0.00 0.00 0.00 84 1006.3
20260506172802 54 228 4.3 6.1 0.00 0.00 0.00 84 1006.0
20260506171901 54 237 3.5 5.2 0.00 0.00 0.00 84 1006.1
20260506165201 55 239 4.3 6.1 0.00 0.00 0.00 84 1006.0
20260506164301 56 228 3.5 6.1 0.00 0.00 0.00 84 1006.1
20260506163401 55 265 2.6 4.3 0.00 0.00 0.00 84 1005.8
20260506162502 55 240 4.3 7.0 0.00 0.00 0.00 84 1005.9
20260506161601 54 231 4.3 5.2 0.00 0.00 0.00 84 1005.8
20260506160701 54 175 1.7 3.5 0.00 0.00 0.00 84 1005.7
20260506155801 55 236 5.2 7.0 0.00 0.00 0.00 84 1005.6
20260506154901 55 222 6.1 7.0 0.00 0.00 0.00 84 1005.8
20260506154001 55 215 3.5 6.1 0.00 0.00 0.00 84 1005.7
20260506153101 55 300 3.5 6.1 0.00 0.00 0.00 84 1005.5
20260506151301 55 202 3.5 4.3 0.00 0.00 0.00 84 1005.9
20260506150401 54 210 4.3 7.0 0.00 0.00 0.00 84 1005.9
20260506145501 54 270 6.1 7.8 0.00 0.00 0.00 84 1005.6
20260506143703 55 295 5.2 8.7 0.00 0.00 0.00 84 1005.7
20260506142801 57 293 5.2 7.0 0.00 0.00 0.00 84 1005.7
20260506141901 57 256 2.6 6.1 0.00 0.00 0.00 84 1005.7
20260506141001 58 240 6.1 7.0 0.00 0.00 0.00 84 1005.7
20260506135201 57 230 4.3 7.0 0.00 0.00 0.00 84 1006.2
20260506134301 56 253 4.3 7.0 0.00 0.00 0.00 84 1006.0
20260506132501 57 246 6.1 9.6 0.00 0.00 0.00 84 1005.8
20260506131603 57 251 6.1 9.6 0.00 0.00 0.00 84 1005.9
20260506130701 57 215 3.5 8.7 0.00 0.00 0.00 84 1006.0
20260506125802 56 281 5.2 7.0 0.00 0.00 0.00 84 1006.0
20260506124901 56 257 3.5 7.0 0.00 0.00 0.00 84 1006.2
20260506124001 55 279 4.3 5.2 0.00 0.00 0.00 84 1006.1
20260506122202 55 217 3.5 7.0 0.00 0.00 0.00 84 1006.1
20260506121301 54 241 4.3 8.7 0.00 0.00 0.00 84 1006.4
20260506120401 52 274 2.6 5.2 0.00 0.00 0.00 84 1006.4
20260506115501 52 350 5.2 9.6 0.00 0.00 0.00 84 1006.3
20260506114601 53 310 3.5 5.2 0.00 0.00 0.00 84 1006.4
20260506112802 51 343 4.3 7.0 0.00 0.00 0.00 84 1006.5
20260506111901 51 307 3.5 7.0 0.00 0.00 0.00 84 1006.5
20260506111001 51 310 3.5 7.0 0.00 0.00 0.00 84 1006.4
20260506110101 51 254 3.5 6.1 0.00 0.00 0.00 84 1006.5
20260506105202 49 335 4.3 8.7 0.00 0.00 0.00 84 1006.5
20260506104301 49 318 5.2 7.0 0.00 0.00 0.00 84 1006.7
20260506103401 49 347 5.2 7.0 0.00 0.00 0.00 84 1006.5
20260506102501 50 336 3.5 5.2 0.00 0.00 0.00 84 1006.8
20260506101602 49 355 3.5 7.8 0.00 0.00 0.00 84 1006.6
20260506100701 49 168 2.6 5.2 0.00 0.00 0.00 84 1006.8